#Datum;Uhrzeit;WR;Pac;DaySum;Status;WR;Pac;DaySum;Status;Pdc1;Udc;Temp;WR;Pac;DaySum;Status;Pdc1;Udc;Temp;WR;Pac;DaySum;Status;Pdc1;Udc;Temp;WR;Pac;DaySum;Status;Pdc1;Pdc2;Udc1;Udc2;Temp;WR;Pac;DaySum;Status;Pdc1;Pdc2;Udc1;Udc2;Temp;WR;Pac;DaySum;Status;Pdc1;Udc;Temp;WR;Pac;DaySum;Status;Pdc1;Udc;Temp;WR;Pac;DaySum;Status;Pdc1;Udc;Temp
03.03.19;23:55:00;1;470;7532;0;2;0;13998;0;0;0;0;3;0;8966;0;0;0;0;4;0;12963;0;0;0;0;5;0;30128;0;0;0;0;0;0;6;0;23075;0;0;0;0;0;0;7;0;18041;0;0;0;0;8;0;17872;0;0;0;0;9;0;9827;0;0;0;0
03.03.19;23:50:00;1;472;7493;0;2;0;13998;0;0;0;0;3;0;8966;0;0;0;0;4;0;12963;0;0;0;0;5;0;30128;0;0;0;0;0;0;6;0;23075;0;0;0;0;0;0;7;0;18041;0;0;0;0;8;0;17872;0;0;0;0;9;0;9827;0;0;0;0
03.03.19;23:45:00;1;433;7453;0;2;0;13998;0;0;0;0;3;0;8966;0;0;0;0;4;0;12963;0;0;0;0;5;0;30128;0;0;0;0;0;0;6;0;23075;0;0;0;0;0;0;7;0;18041;0;0;0;0;8;0;17872;0;0;0;0;9;0;9827;0;0;0;0
03.03.19;23:40:00;1;463;7417;0;2;0;13998;0;0;0;0;3;0;8966;0;0;0;0;4;0;12963;0;0;0;0;5;0;30128;0;0;0;0;0;0;6;0;23075;0;0;0;0;0;0;7;0;18041;0;0;0;0;8;0;17872;0;0;0;0;9;0;9827;0;0;0;0
03.03.19;23:35:00;1;492;7378;0;2;0;13998;0;0;0;0;3;0;8966;0;0;0;0;4;0;12963;0;0;0;0;5;0;30128;0;0;0;0;0;0;6;0;23075;0;0;0;0;0;0;7;0;18041;0;0;0;0;8;0;17872;0;0;0;0;9;0;9827;0;0;0;0
03.03.19;23:30:00;1;495;7337;0;2;0;13998;0;0;0;0;3;0;8966;0;0;0;0;4;0;12963;0;0;0;0;5;0;30128;0;0;0;0;0;0;6;0;23075;0;0;0;0;0;0;7;0;18041;0;0;0;0;8;0;17872;0;0;0;0;9;0;9827;0;0;0;0
03.03.19;23:25:00;1;499;7295;0;2;0;13998;0;0;0;0;3;0;8966;0;0;0;0;4;0;12963;0;0;0;0;5;0;30128;0;0;0;0;0;0;6;0;23075;0;0;0;0;0;0;7;0;18041;0;0;0;0;8;0;17872;0;0;0;0;9;0;9827;0;0;0;0
03.03.19;23:20:00;1;500;7254;0;2;0;13998;0;0;0;0;3;0;8966;0;0;0;0;4;0;12963;0;0;0;0;5;0;30128;0;0;0;0;0;0;6;0;23075;0;0;0;0;0;0;7;0;18041;0;0;0;0;8;0;17872;0;0;0;0;9;0;9827;0;0;0;0
03.03.19;23:15:00;1;500;7212;0;2;0;13998;0;0;0;0;3;0;8966;0;0;0;0;4;0;12963;0;0;0;0;5;0;30128;0;0;0;0;0;0;6;0;23075;0;0;0;0;0;0;7;0;18041;0;0;0;0;8;0;17872;0;0;0;0;9;0;9827;0;0;0;0
03.03.19;23:10:00;1;500;7170;0;2;0;13998;0;0;0;0;3;0;8966;0;0;0;0;4;0;12963;0;0;0;0;5;0;30128;0;0;0;0;0;0;6;0;23075;0;0;0;0;0;0;7;0;18041;0;0;0;0;8;0;17872;0;0;0;0;9;0;9827;0;0;0;0
03.03.19;23:07:00;1;495;7145;0;2;0;13998;0;0;0;0;3;0;8966;0;0;0;0;4;0;12963;0;0;0;0;5;0;30128;0;0;0;0;0;0;6;0;23075;0;0;0;0;0;0;7;0;18041;0;0;0;0;8;0;17872;0;0;0;0;9;0;9827;0;0;0;0
03.03.19;23:00:00;1;481;7079;0;2;0;13998;0;0;0;0;3;0;8966;0;0;0;0;4;0;12963;0;0;0;0;5;0;30128;0;0;0;0;0;0;6;0;23075;0;0;0;0;0;0;7;0;18041;0;0;0;0;8;0;17872;0;0;0;0;9;0;9827;0;0;0;0
03.03.19;22:55:00;1;463;7039;0;2;0;13998;0;0;0;0;3;0;8966;0;0;0;0;4;0;12963;0;0;0;0;5;0;30128;2;0;0;0;0;0;6;0;23075;2;0;0;0;0;0;7;0;18041;0;0;0;0;8;0;17872;0;0;0;0;9;0;9827;0;0;0;0
03.03.19;22:50:00;1;441;7000;0;2;0;13998;0;0;0;0;3;0;8966;0;0;0;0;4;0;12963;0;0;0;0;5;0;30128;2;0;0;0;0;0;6;0;23075;2;0;0;0;0;0;7;0;18041;0;0;0;0;8;0;17872;0;0;0;0;9;0;9827;0;0;0;0
03.03.19;22:45:00;1;476;6964;0;2;0;13998;0;0;0;0;3;0;8966;0;0;0;0;4;0;12963;0;0;0;0;5;0;30128;2;0;0;0;0;0;6;0;23075;2;0;0;0;0;0;7;0;18041;0;0;0;0;8;0;17872;0;0;0;0;9;0;9827;0;0;0;0
03.03.19;22:40:00;1;480;6924;0;2;0;13998;0;0;0;0;3;0;8966;0;0;0;0;4;0;12963;0;0;0;0;5;0;30128;2;0;0;0;0;0;6;0;23075;2;0;0;0;0;0;7;0;18041;0;0;0;0;8;0;17872;0;0;0;0;9;0;9827;0;0;0;0
03.03.19;22:35:00;1;478;6884;0;2;0;13998;0;0;0;0;3;0;8966;0;0;0;0;4;0;12963;0;0;0;0;5;0;30128;2;0;0;0;0;0;6;0;23075;2;0;0;0;0;0;7;0;18041;0;0;0;0;8;0;17872;0;0;0;0;9;0;9827;0;0;0;0
03.03.19;22:30:00;1;489;6844;0;2;0;13998;0;0;0;0;3;0;8966;0;0;0;0;4;0;12963;0;0;0;0;5;0;30128;2;0;0;0;0;0;6;0;23075;2;0;0;0;0;0;7;0;18041;0;0;0;0;8;0;17872;0;0;0;0;9;0;9827;0;0;0;0
03.03.19;22:25:00;1;517;6803;0;2;0;13998;0;0;0;0;3;0;8966;0;0;0;0;4;0;12963;0;0;0;0;5;0;30128;2;0;0;0;0;0;6;0;23075;2;0;0;0;0;0;7;0;18041;0;0;0;0;8;0;17872;0;0;0;0;9;0;9827;0;0;0;0
03.03.19;22:20:00;1;531;6760;0;2;0;13998;0;0;0;0;3;0;8966;0;0;0;0;4;0;12963;0;0;0;0;5;0;30128;2;0;0;0;0;0;6;0;23075;2;0;0;0;0;0;7;0;18041;0;0;0;0;8;0;17872;0;0;0;0;9;0;9827;0;0;0;0
03.03.19;22:15:00;1;552;6715;0;2;0;13998;0;0;0;0;3;0;8966;0;0;0;0;4;0;12963;0;0;0;0;5;0;30128;2;0;0;0;0;0;6;0;23075;2;0;0;0;0;0;7;0;18041;0;0;0;0;8;0;17872;0;0;0;0;9;0;9827;0;0;0;0
03.03.19;22:10:00;1;549;6670;0;2;0;13998;0;0;0;0;3;0;8966;0;0;0;0;4;0;12963;0;0;0;0;5;0;30128;2;0;0;0;0;0;6;0;23075;2;0;0;0;0;0;7;0;18041;0;0;0;0;8;0;17872;0;0;0;0;9;0;9827;0;0;0;0
03.03.19;22:05:00;1;538;6624;0;2;0;13998;0;0;0;0;3;0;8966;0;0;0;0;4;0;12963;0;0;0;0;5;0;30128;2;0;0;0;0;0;6;0;23075;2;0;0;0;0;0;7;0;18041;0;0;0;0;8;0;17872;0;0;0;0;9;0;9827;0;0;0;0
03.03.19;22:00:00;1;507;6579;0;2;0;13998;0;0;0;0;3;0;8966;0;0;0;0;4;0;12963;0;0;0;0;5;0;30128;2;0;0;0;0;0;6;0;23075;2;0;0;0;0;0;7;0;18041;0;0;0;0;8;0;17872;0;0;0;0;9;0;9827;0;0;0;0
03.03.19;21:55:00;1;497;6536;0;2;0;13998;0;0;0;0;3;0;8966;0;0;0;0;4;0;12963;0;0;0;0;5;0;30128;2;0;0;0;0;0;6;0;23075;2;0;0;0;0;0;7;0;18041;0;0;0;0;8;0;17872;0;0;0;0;9;0;9827;0;0;0;0
03.03.19;21:50:00;1;498;6494;0;2;0;13998;0;0;0;0;3;0;8966;0;0;0;0;4;0;12963;0;0;0;0;5;0;30128;2;0;0;0;0;0;6;0;23075;2;0;0;0;0;0;7;0;18041;0;0;0;0;8;0;17872;0;0;0;0;9;0;9827;0;0;0;0
03.03.19;21:45:00;1;531;6453;0;2;0;13998;0;0;0;0;3;0;8966;0;0;0;0;4;0;12963;0;0;0;0;5;0;30128;2;0;0;0;0;0;6;0;23075;2;0;0;0;0;0;7;0;18041;0;0;0;0;8;0;17872;0;0;0;0;9;0;9827;0;0;0;0
03.03.19;21:40:00;1;398;6408;0;2;0;13998;0;0;0;0;3;0;8966;0;0;0;0;4;0;12963;0;0;0;0;5;0;30128;2;0;0;0;0;0;6;0;23075;2;0;0;0;0;0;7;0;18041;0;0;0;0;8;0;17872;0;0;0;0;9;0;9827;0;0;0;0
03.03.19;21:35:00;1;212;6374;0;2;0;13998;0;0;0;0;3;0;8966;0;0;0;0;4;0;12963;0;0;0;0;5;0;30128;2;0;0;0;0;0;6;0;23075;2;0;0;0;0;0;7;0;18041;0;0;0;0;8;0;17872;0;0;0;0;9;0;9827;0;0;0;0
03.03.19;21:30:00;1;218;6356;0;2;0;13998;0;0;0;0;3;0;8966;0;0;0;0;4;0;12963;0;0;0;0;5;0;30128;2;0;0;0;0;0;6;0;23075;2;0;0;0;0;0;7;0;18041;0;0;0;0;8;0;17872;0;0;0;0;9;0;9827;0;0;0;0
03.03.19;21:25:00;1;212;6338;0;2;0;13998;0;0;0;0;3;0;8966;0;0;0;0;4;0;12963;0;0;0;0;5;0;30128;2;0;0;0;0;0;6;0;23075;2;0;0;0;0;0;7;0;18041;0;0;0;0;8;0;17872;0;0;0;0;9;0;9827;0;0;0;0
03.03.19;21:20:00;1;304;6319;0;2;0;13998;0;0;0;0;3;0;8966;0;0;0;0;4;0;12963;0;0;0;0;5;0;30128;2;0;0;0;0;0;6;0;23075;2;0;0;0;0;0;7;0;18041;0;0;0;0;8;0;17872;0;0;0;0;9;0;9827;0;0;0;0
03.03.19;21:15:00;1;317;6294;0;2;0;13998;0;0;0;0;3;0;8966;0;0;0;0;4;0;12963;0;0;0;0;5;0;30128;2;0;0;0;0;0;6;0;23075;2;0;0;0;0;0;7;0;18041;0;0;0;0;8;0;17872;0;0;0;0;9;0;9827;0;0;0;0
03.03.19;21:10:00;1;320;6268;0;2;0;13998;0;0;0;0;3;0;8966;0;0;0;0;4;0;12963;0;0;0;0;5;0;30128;2;0;0;0;0;0;6;0;23075;2;0;0;0;0;0;7;0;18041;0;0;0;0;8;0;17872;0;0;0;0;9;0;9827;0;0;0;0
03.03.19;21:05:00;1;326;6241;0;2;0;13998;0;0;0;0;3;0;8966;0;0;0;0;4;0;12963;0;0;0;0;5;0;30128;2;0;0;0;0;0;6;0;23075;2;0;0;0;0;0;7;0;18041;0;0;0;0;8;0;17872;0;0;0;0;9;0;9827;0;0;0;0
03.03.19;21:00:00;1;294;6216;0;2;0;13998;0;0;0;0;3;0;8966;0;0;0;0;4;0;12963;0;0;0;0;5;0;30128;2;0;0;0;0;0;6;0;23075;2;0;0;0;0;0;7;0;18041;0;0;0;0;8;0;17872;0;0;0;0;9;0;9827;0;0;0;0
03.03.19;20:55:00;1;280;6192;0;2;0;13998;0;0;0;0;3;0;8966;0;0;0;0;4;0;12963;0;0;0;0;5;0;30128;2;0;0;0;0;0;6;0;23075;2;0;0;0;0;0;7;0;18041;0;0;0;0;8;0;17872;0;0;0;0;9;0;9827;0;0;0;0
03.03.19;20:50:00;1;285;6168;0;2;0;13998;0;0;0;0;3;0;8966;0;0;0;0;4;0;12963;0;0;0;0;5;0;30128;2;0;0;0;0;0;6;0;23075;2;0;0;0;0;0;7;0;18041;0;0;0;0;8;0;17872;0;0;0;0;9;0;9827;0;0;0;0
03.03.19;20:45:00;1;223;6145;0;2;0;13998;0;0;0;0;3;0;8966;0;0;0;0;4;0;12963;0;0;0;0;5;0;30128;2;0;0;0;0;0;6;0;23075;2;0;0;0;0;0;7;0;18041;0;0;0;0;8;0;17872;0;0;0;0;9;0;9827;0;0;0;0
03.03.19;20:40:00;1;210;6126;0;2;0;13998;0;0;0;0;3;0;8966;0;0;0;0;4;0;12963;0;0;0;0;5;0;30128;2;0;0;0;0;0;6;0;23075;2;0;0;0;0;0;7;0;18041;0;0;0;0;8;0;17872;0;0;0;0;9;0;9827;0;0;0;0
03.03.19;20:35:00;1;210;6109;0;2;0;13998;0;0;0;0;3;0;8966;0;0;0;0;4;0;12963;0;0;0;0;5;0;30128;2;0;0;0;0;0;6;0;23075;2;0;0;0;0;0;7;0;18041;0;0;0;0;8;0;17872;0;0;0;0;9;0;9827;0;0;0;0
03.03.19;20:30:00;1;215;6091;0;2;0;13998;0;0;0;0;3;0;8966;0;0;0;0;4;0;12963;0;0;0;0;5;0;30128;2;0;0;0;0;0;6;0;23075;2;0;0;0;0;0;7;0;18041;0;0;0;0;8;0;17872;0;0;0;0;9;0;9827;0;0;0;0
03.03.19;20:25:00;1;250;6073;0;2;0;13998;0;0;0;0;3;0;8966;0;0;0;0;4;0;12963;0;0;0;0;5;0;30128;2;0;0;0;0;0;6;0;23075;2;0;0;0;0;0;7;0;18041;0;0;0;0;8;0;17872;0;0;0;0;9;0;9827;0;0;0;0
03.03.19;20:20:00;1;252;6052;0;2;0;13998;0;0;0;0;3;0;8966;0;0;0;0;4;0;12963;0;0;0;0;5;0;30128;2;0;0;0;0;0;6;0;23075;2;0;0;0;0;0;7;0;18041;0;0;0;0;8;0;17872;0;0;0;0;9;0;9827;0;0;0;0
03.03.19;20:15:00;1;243;6031;0;2;0;13998;0;0;0;0;3;0;8966;0;0;0;0;4;0;12963;0;0;0;0;5;0;30128;2;0;0;0;0;0;6;0;23075;2;0;0;0;0;0;7;0;18041;0;0;0;0;8;0;17872;0;0;0;0;9;0;9827;0;0;0;0
03.03.19;20:10:00;1;210;6010;0;2;0;13998;0;0;0;0;3;0;8966;0;0;0;0;4;0;12963;0;0;0;0;5;0;30128;2;0;0;0;0;0;6;0;23075;2;0;0;0;0;0;7;0;18041;0;0;0;0;8;0;17872;0;0;0;0;9;0;9827;0;0;0;0
03.03.19;20:05:00;1;211;5993;0;2;0;13998;0;0;0;0;3;0;8966;0;0;0;0;4;0;12963;0;0;0;0;5;0;30128;2;0;0;0;0;0;6;0;23075;2;0;0;0;0;0;7;0;18041;0;0;0;0;8;0;17872;0;0;0;0;9;0;9827;0;0;0;0
03.03.19;20:00:00;1;211;5975;0;2;0;13998;0;0;0;0;3;0;8966;0;0;0;0;4;0;12963;0;0;0;0;5;0;30128;2;0;0;0;0;0;6;0;23075;2;0;0;0;0;0;7;0;18041;0;0;0;0;8;0;17872;0;0;0;0;9;0;9827;0;0;0;0
03.03.19;19:55:00;1;211;5958;0;2;0;13998;0;0;0;0;3;0;8966;0;0;0;0;4;0;12963;0;0;0;0;5;0;30128;2;0;0;0;0;0;6;0;23075;2;0;0;0;0;0;7;0;18041;0;0;0;0;8;0;17872;0;0;0;0;9;0;9827;0;0;0;0
03.03.19;19:50:00;1;211;5940;0;2;0;13998;0;0;0;0;3;0;8966;0;0;0;0;4;0;12963;0;0;0;0;5;0;30128;2;0;0;0;0;0;6;0;23075;2;0;0;0;0;0;7;0;18041;0;0;0;0;8;0;17872;0;0;0;0;9;0;9827;0;0;0;0
03.03.19;19:45:00;1;211;5922;0;2;0;13998;0;0;0;0;3;0;8966;0;0;0;0;4;0;12963;0;0;0;0;5;0;30128;2;0;0;0;0;0;6;0;23075;2;0;0;0;0;0;7;0;18041;0;0;0;0;8;0;17872;0;0;0;0;9;0;9827;0;0;0;0
03.03.19;19:40:00;1;211;5905;0;2;0;13998;0;0;0;0;3;0;8966;0;0;0;0;4;0;12963;0;0;0;0;5;0;30128;2;0;0;0;0;0;6;0;23075;2;0;0;0;0;0;7;0;18041;0;0;0;0;8;0;17872;0;0;0;0;9;0;9827;0;0;0;0
03.03.19;19:35:00;1;249;5887;0;2;0;13998;0;0;0;0;3;0;8966;0;0;0;0;4;0;12963;0;0;0;0;5;0;30128;2;0;0;0;0;0;6;0;23075;2;0;0;0;0;0;7;0;18041;0;0;0;0;8;0;17872;0;0;0;0;9;0;9827;0;0;0;0
03.03.19;19:30:00;1;261;5866;0;2;0;13998;0;0;0;0;3;0;8966;0;0;0;0;4;0;12963;0;0;0;0;5;0;30128;2;0;0;0;0;0;6;0;23075;2;0;0;0;0;0;7;0;18041;0;0;0;0;8;0;17872;0;0;0;0;9;0;9827;0;0;0;0
03.03.19;19:25:00;1;254;5844;0;2;0;13998;0;0;0;0;3;0;8966;0;0;0;0;4;0;12963;0;0;0;0;5;0;30128;2;0;0;0;0;0;6;0;23075;2;0;0;0;0;0;7;0;18041;0;0;0;0;8;0;17872;0;0;0;0;9;0;9827;0;0;0;0
03.03.19;19:20:00;1;222;5823;0;2;0;13998;0;0;0;0;3;0;8966;0;0;0;0;4;0;12963;0;0;0;0;5;0;30128;2;0;0;0;0;0;6;0;23075;2;0;0;0;0;0;7;0;18041;0;0;0;0;8;0;17872;0;0;0;0;9;0;9827;0;0;0;0
03.03.19;19:15:00;1;210;5804;0;2;0;13998;0;0;0;0;3;0;8966;0;0;0;0;4;0;12963;0;0;0;0;5;0;30128;2;0;0;0;0;0;6;0;23075;2;0;0;0;0;0;7;0;18041;0;0;0;0;8;0;17872;0;0;0;0;9;0;9827;0;0;0;0
03.03.19;19:10:00;1;210;5786;0;2;0;13998;0;0;0;0;3;0;8966;0;0;0;0;4;0;12963;0;0;0;0;5;0;30128;2;0;0;0;0;0;6;0;23075;2;0;0;0;0;0;7;0;18041;0;0;0;0;8;0;17872;0;0;0;0;9;0;9827;0;0;0;0
03.03.19;19:05:00;1;263;5768;0;2;0;13998;0;0;0;0;3;0;8966;0;0;0;0;4;0;12963;0;0;0;0;5;0;30128;2;0;0;0;0;0;6;0;23075;2;0;0;0;0;0;7;0;18041;0;0;0;0;8;0;17872;0;0;0;0;9;0;9827;0;0;0;0
03.03.19;19:00:00;1;272;5747;0;2;0;13998;0;0;0;0;3;0;8966;0;0;0;0;4;0;12963;0;0;0;0;5;0;30128;2;0;0;0;0;0;6;0;23075;2;0;0;0;0;0;7;0;18041;0;0;0;0;8;0;17872;0;0;0;0;9;0;9827;0;0;0;0
03.03.19;18:55:00;1;273;5724;0;2;0;13998;0;0;0;0;3;0;8966;0;0;0;0;4;0;12963;0;0;0;0;5;0;30128;2;0;0;0;0;0;6;0;23075;2;0;0;0;0;0;7;0;18041;0;0;0;0;8;0;17872;0;0;0;0;9;0;9827;0;0;0;0
03.03.19;18:50:00;1;273;5701;0;2;0;13998;0;0;0;0;3;0;8966;0;0;0;0;4;0;12963;0;0;0;0;5;0;30128;2;0;0;0;0;0;6;0;23075;2;0;0;0;0;0;7;0;18041;0;0;0;0;8;0;17872;0;0;0;0;9;0;9827;0;0;0;0
03.03.19;18:45:00;1;274;5678;0;2;0;13998;0;0;0;0;3;0;8966;0;0;0;0;4;0;12963;0;0;0;0;5;0;30128;2;0;0;0;0;0;6;0;23075;2;0;0;0;0;0;7;0;18041;0;0;0;0;8;0;17872;0;0;0;0;9;0;9827;0;0;0;0
03.03.19;18:40:00;1;312;5655;0;2;0;13998;0;0;0;0;3;0;8966;0;0;0;0;4;0;12963;0;0;0;0;5;0;30128;2;0;0;0;0;0;6;0;23075;2;0;0;0;0;0;7;0;18041;0;0;0;0;8;0;17872;0;0;0;0;9;0;9827;0;0;0;0
03.03.19;18:35:00;1;417;5630;0;2;0;13998;0;0;0;0;3;0;8966;0;0;0;0;4;0;12963;0;0;0;0;5;0;30128;2;0;0;0;0;0;6;0;23075;2;0;0;0;0;0;7;0;18041;0;0;0;0;8;0;17872;0;0;0;0;9;0;9827;0;0;0;0
03.03.19;18:30:00;1;657;5596;0;2;0;13998;0;0;0;0;3;0;8966;0;0;0;0;4;0;12963;0;0;0;0;5;0;30128;2;0;0;0;0;0;6;0;23075;2;0;0;0;0;0;7;0;18041;0;0;0;0;8;0;17872;0;0;0;0;9;0;9827;0;0;0;0
03.03.19;18:25:00;1;612;5541;0;2;0;13998;0;0;0;0;3;0;8966;0;0;0;0;4;0;12963;0;0;0;0;5;0;30128;2;0;0;0;0;0;6;0;23075;2;0;0;0;0;0;7;0;18041;0;0;0;0;8;0;17872;0;0;0;0;9;0;9827;0;0;0;0
03.03.19;18:20:00;1;453;5487;0;2;0;13998;0;0;0;0;3;0;8966;0;0;0;0;4;0;12963;0;0;0;0;5;0;30128;2;0;0;0;0;0;6;0;23075;2;0;0;0;0;0;7;0;18041;0;0;0;0;8;0;17872;0;0;0;0;9;0;9827;0;0;0;0
03.03.19;18:15:00;1;211;5447;0;2;0;13998;0;0;0;0;3;0;8966;0;0;0;0;4;0;12963;0;0;0;0;5;0;30128;2;0;0;0;0;0;6;0;23075;2;0;0;0;0;0;7;0;18041;0;0;0;0;8;0;17872;0;0;0;0;9;0;9827;0;0;0;0
03.03.19;18:10:00;1;208;5429;0;2;0;13998;0;0;189;12;3;0;8966;6;0;288;20;4;0;12963;0;0;17;5;5;0;30128;2;0;0;0;0;0;6;0;23075;0;0;0;0;0;0;7;0;18041;0;0;0;0;8;0;17872;0;0;0;0;9;0;9827;0;0;0;0
03.03.19;18:05:00;1;207;5412;0;2;0;13998;6;0;305;18;3;0;8966;6;0;361;20;4;0;12963;2;0;84;19;5;0;30128;2;0;0;0;0;0;6;0;23075;2;0;0;0;0;0;7;0;18041;0;0;0;0;8;0;17872;0;0;0;0;9;0;9827;0;0;0;0
03.03.19;18:00:00;1;206;5394;0;2;0;13998;6;0;338;18;3;0;8966;6;1;406;20;4;0;12963;1;0;122;19;5;0;30128;1;0;2;295;296;26;6;0;23075;1;5;1;119;258;18;7;0;18041;0;0;129;9;8;0;17872;0;0;130;9;9;0;9827;0;0;225;12
03.03.19;17:55:00;1;230;5377;0;2;0;13998;6;0;360;18;3;0;8966;6;2;432;21;4;0;12963;1;0;155;19;5;0;30128;23;0;0;369;367;27;6;0;23075;23;10;1;180;485;26;7;0;18041;6;0;302;19;8;0;17872;6;0;303;19;9;0;9827;6;0;314;15
03.03.19;17:50:00;1;233;5358;0;2;0;13998;6;0;384;19;3;0;8966;6;3;456;21;4;0;12963;1;0;200;20;5;7;30128;26;0;0;394;587;27;6;0;23075;23;8;1;181;538;26;7;0;18041;6;0;384;19;8;0;17872;6;0;385;19;9;0;9827;6;0;393;15
03.03.19;17:45:00;1;248;5339;0;2;0;13998;6;0;403;19;3;0;8966;6;0;514;21;4;0;12963;3;0;216;20;5;13;30128;26;0;0;408;646;28;6;0;23075;1;8;4;262;564;27;7;0;18041;6;2;424;20;8;0;17872;6;4;407;19;9;0;9827;6;2;447;16
03.03.19;17:40:00;1;250;5318;0;2;0;13998;6;0;410;19;3;2;8966;4;10;477;21;4;0;12963;3;0;225;21;5;76;30126;4;3;13;372;593;29;6;16;23075;23;5;11;536;534;27;7;1;18041;6;3;447;20;8;1;17872;6;3;448;20;9;1;9827;6;2;485;16
03.03.19;17:35:00;1;244;5297;0;2;0;13998;6;0;413;20;3;2;8966;3;7;502;22;4;0;12963;3;0;200;21;5;87;30120;4;12;18;372;593;29;6;58;23073;4;21;29;476;454;28;7;0;18041;6;4;450;20;8;0;17872;6;5;452;20;9;3;9827;6;3;491;16
03.03.19;17:30:00;1;208;5276;0;2;11;13998;3;21;396;20;3;1;8965;6;8;511;22;4;5;12963;3;5;200;21;5;105;30112;4;25;28;372;593;29;6;71;23068;4;28;35;476;454;28;7;2;18041;4;7;460;21;8;1;17872;6;6;462;20;9;2;9827;6;3;505;16
03.03.19;17:25:00;1;208;5259;0;2;38;13997;4;71;361;21;3;3;8965;6;9;508;22;4;11;12963;3;12;200;21;5;126;30103;4;36;39;372;593;29;6;83;23062;4;30;41;476;454;28;7;6;18040;3;17;437;21;8;5;17872;3;17;438;21;9;2;9827;4;5;504;17
03.03.19;17:20:00;1;208;5242;0;2;51;13994;4;86;359;21;3;4;8965;6;9;520;22;4;10;12962;3;10;198;22;5;159;30093;4;50;55;372;593;29;6;111;23054;4;45;60;476;454;28;7;12;18040;6;21;446;21;8;11;17872;6;22;450;21;9;1;9826;6;6;521;17
03.03.19;17:15:00;1;209;5224;0;2;71;13990;4;108;375;22;3;0;8965;6;0;551;23;4;43;12961;3;45;197;22;5;205;30079;4;83;76;372;593;29;6;143;23045;4;74;88;476;454;28;7;47;18039;4;81;400;21;8;44;17871;4;85;416;21;9;5;9826;6;10;529;17
03.03.19;17:10:00;1;208;5207;0;2;94;13984;4;129;366;22;3;48;8965;4;81;410;24;4;53;12957;3;55;197;22;5;246;30062;4;98;94;372;593;29;6;168;23033;4;77;82;476;454;28;7;75;18035;4;105;404;22;8;68;17867;4;108;413;21;9;5;9826;6;10;539;17
03.03.19;17:05:00;1;208;5189;0;2;125;13976;4;163;365;22;3;68;8961;4;107;453;24;4;81;12953;3;84;200;22;5;309;30041;4;134;122;372;593;29;6;213;23019;4;102;109;476;454;28;7;107;18029;4;136;387;22;8;108;17861;4;139;398;21;9;44;9825;6;63;439;18
03.03.19;17:00:00;1;209;5172;0;2;164;13966;4;202;367;23;3;91;8955;4;133;488;24;4;118;12946;5;123;221;23;5;375;30015;4;172;158;373;593;30;6;258;23001;4;128;135;476;454;29;7;146;18020;4;179;392;22;8;150;17853;4;186;404;22;9;78;9822;4;108;458;19
03.03.19;16:55:00;1;257;5154;0;2;184;13952;4;226;375;23;3;103;8948;4;146;502;24;4;138;12937;5;144;219;23;5;421;29983;4;190;175;390;593;30;6;285;22979;4;139;147;476;454;29;7;173;18008;4;211;402;22;8;178;17840;4;209;419;22;9;93;9815;4;125;475;19
03.03.19;16:50:00;1;294;5134;0;2;196;13937;4;239;378;23;3;118;8939;4;157;485;24;4;152;12925;5;158;221;23;5;447;29948;4;210;184;378;603;30;6;321;22955;4;149;170;480;517;29;7;189;17993;4;234;421;22;8;196;17825;4;233;421;22;9;101;9808;4;135;495;19
03.03.19;16:45:00;1;351;5110;0;2;229;13921;4;269;363;24;3;134;8929;4;176;466;25;4;182;12912;5;190;221;23;5;529;29910;4;255;224;398;620;30;6;397;22928;4;187;200;564;542;29;7;227;17977;4;267;452;23;8;232;17809;4;269;440;22;9;122;9799;4;155;482;19
03.03.19;16:40:00;1;319;5080;0;2;286;13902;4;330;377;24;3;174;8918;4;216;483;25;4;240;12897;5;249;225;24;5;643;29866;4;302;271;400;623;30;6;485;22894;4;239;245;552;543;29;7;285;17959;4;330;456;23;8;294;17790;4;330;425;22;9;158;9789;4;191;492;20
03.03.19;16:35:00;1;310;5053;0;2;324;13878;4;371;384;25;3;200;8904;4;243;480;25;4;270;12877;5;282;228;24;5;711;29812;4;342;301;397;619;30;6;537;22853;4;269;281;580;548;29;7;335;17935;4;379;443;23;8;335;17765;4;374;426;23;9;182;9776;4;214;493;20
03.03.19;16:30:00;1;312;5027;0;2;354;13851;4;402;382;25;3;217;8887;4;265;489;26;4;297;12855;5;310;227;24;5;782;29752;4;376;328;401;625;30;6;581;22808;4;277;284;574;554;29;7;371;17907;4;418;446;23;8;370;17738;4;414;449;23;9;197;9761;4;233;487;20
03.03.19;16:25:00;1;311;5001;0;2;405;13822;4;456;390;26;3;250;8869;4;295;504;26;4;345;12830;5;360;229;25;5;889;29687;4;426;375;410;637;31;6;671;22759;4;337;357;569;551;29;7;422;17876;4;470;455;23;8;425;17707;4;468;448;23;9;225;9744;4;265;493;21
03.03.19;16:20:00;1;314;4975;0;2;504;13788;4;558;389;26;3;309;8848;4;359;488;26;4;433;12802;5;451;229;25;5;1074;29612;4;540;455;408;635;31;6;819;22702;4;410;413;577;555;29;7;531;17841;4;587;466;24;8;538;17672;4;589;455;23;9;285;9726;4;327;505;21
03.03.19;16:15:00;1;315;4948;0;2;608;13746;4;667;397;27;3;379;8823;4;432;496;27;4;527;12766;5;549;230;25;5;1241;29521;4;626;528;406;674;31;6;954;22633;4;524;517;583;558;29;7;665;17797;4;717;460;24;8;657;17627;4;710;471;24;9;351;9702;4;395;509;22
03.03.19;16:10:00;1;292;4922;0;2;706;13696;4;767;395;27;3;443;8791;4;498;499;27;4;611;12722;5;637;233;26;5;1380;29416;4;696;591;409;667;31;6;1055;22554;4;530;529;583;560;29;7;770;17742;4;828;458;24;8;770;17573;4;829;467;24;9;411;9673;4;461;515;22
03.03.19;16:05:00;1;249;4897;0;2;871;13637;4;937;397;28;3;547;8755;4;606;513;27;4;750;12672;5;781;233;26;5;1651;29301;4;850;707;412;671;31;6;1259;22465;4;642;649;581;557;29;7;958;17679;4;1020;462;24;8;952;17509;4;1012;466;24;9;513;9639;4;562;511;22
03.03.19;16:00:00;1;290;4877;0;2;1123;13565;4;1201;402;28;3;703;8709;4;771;518;27;4;960;12609;5;1000;235;27;5;2017;29161;4;1039;871;420;689;31;6;1533;22358;4;793;780;589;564;30;7;1229;17599;4;1301;472;24;8;1219;17430;4;1291;471;24;9;653;9596;4;715;524;23
03.03.19;15:55:00;1;302;4852;0;2;1359;13473;4;1444;405;29;3;846;8651;4;920;524;27;4;1157;12530;5;1205;240;27;5;2319;28991;4;1204;1011;419;677;31;6;1778;22228;4;895;882;593;570;30;7;1496;17498;4;1584;478;25;8;1516;17330;4;1597;474;24;9;825;9542;4;890;527;23
03.03.19;15:50:00;1;290;4828;0;2;1237;13359;4;1322;406;29;3;787;8580;4;855;512;27;4;1056;12433;5;1100;237;27;5;2157;28799;4;1126;932;416;691;32;6;1653;22080;4;855;854;594;561;30;7;1367;17374;4;1449;475;25;8;1362;17204;4;1443;477;24;9;735;9474;4;799;521;23
03.03.19;15:45:00;1;261;4803;0;2;1232;13255;4;1314;398;29;3;783;8515;4;852;510;27;4;1055;12345;5;1099;239;27;5;2172;28620;4;1152;945;415;685;32;6;1673;21942;4;832;820;590;560;30;7;1373;17259;4;1450;467;25;8;1367;17090;4;1445;475;25;9;734;9413;4;797;527;23
03.03.19;15:40:00;1;270;4781;0;2;1473;13153;4;1566;402;29;3;914;8449;4;987;516;27;4;1231;12257;5;1282;236;28;5;2443;28438;4;1294;1067;415;681;32;6;1868;21802;4;942;937;593;567;30;7;1594;17145;4;1674;466;25;8;1580;16976;4;1667;476;25;9;858;9352;4;926;516;24
03.03.19;15:35:00;1;226;4758;0;2;2058;13031;4;2174;401;29;3;1120;8374;4;1205;550;27;4;1651;12155;5;1720;241;28;5;3213;28232;4;1712;1427;419;680;32;6;2451;21644;4;1271;1233;593;565;30;7;2308;17013;4;2427;478;25;8;2315;16846;4;2428;479;25;9;1259;9281;4;1342;525;24
03.03.19;15:30:00;1;215;4737;0;2;2518;12866;4;2656;400;29;3;1236;8282;4;1327;545;27;4;1892;12022;5;1971;241;27;5;3650;27971;4;1967;1604;422;673;31;6;2745;21443;4;1409;1390;588;574;29;7;2740;16826;4;2875;473;25;8;2704;16656;4;2829;455;24;9;1489;9177;4;1583;527;25
03.03.19;15:25:00;1;224;4718;0;2;2585;12658;4;2719;401;27;3;1280;8179;4;1374;554;26;4;2038;11865;5;2122;243;27;5;4007;27650;4;2152;1766;423;695;31;6;3021;21199;4;1536;1506;598;570;29;7;3111;16601;4;3268;483;24;8;3151;16435;4;3292;471;24;9;1747;9057;4;1853;530;24
03.03.19;15:20:00;1;212;4699;0;2;2353;12442;4;2481;406;26;3;1264;8072;4;1361;569;26;4;1931;11695;5;2012;243;26;5;3771;27329;4;2038;1672;429;691;31;6;2931;20952;4;1508;1484;605;581;29;7;2804;16333;4;2941;480;24;8;2725;16163;4;2860;482;24;9;1490;8905;4;1588;544;24
03.03.19;15:15:00;1;212;4682;0;2;1606;12244;4;1702;403;26;3;994;7967;4;1073;539;26;4;1371;11534;5;1428;238;26;5;2764;27014;4;1469;1212;422;695;31;6;2152;20710;4;1107;1076;594;562;29;7;1920;16098;4;2017;479;24;8;1933;15935;4;2029;479;24;9;1056;8781;4;1133;535;23
03.03.19;15:10:00;1;231;4664;0;2;1540;12106;4;1632;401;25;3;965;7882;4;1040;534;26;4;1331;11416;5;1386;238;26;5;2685;26785;4;1414;1179;419;701;31;6;2071;20533;4;1067;1041;598;570;29;7;1768;15932;4;1866;480;24;8;1746;15768;4;1842;481;24;9;947;8689;4;1018;529;23
03.03.19;15:05:00;1;252;4645;0;2;1319;11978;4;1402;406;25;3;840;7801;4;915;521;26;4;1137;11305;5;1184;239;26;5;2361;26561;4;1242;1033;419;675;31;6;1821;20361;4;943;920;592;574;29;7;1491;15785;4;1571;476;24;8;1480;15623;4;1564;475;24;9;798;8611;4;864;523;23
03.03.19;15:00:00;1;254;4624;0;2;1189;11867;4;1271;406;25;3;759;7731;4;829;517;26;4;1027;11209;5;1070;235;26;5;2182;26367;4;1126;959;419;688;32;6;1683;20210;4;868;856;592;572;29;7;1339;15660;4;1415;475;25;8;1327;15498;4;1410;469;24;9;714;8544;4;777;531;23
03.03.19;14:55:00;1;220;4603;0;2;1221;11767;4;1302;400;26;3;774;7667;4;843;516;26;4;1050;11123;5;1094;237;27;5;2248;26184;4;1172;981;415;680;32;6;1716;20070;4;878;881;588;568;29;7;1360;15547;4;1441;474;25;8;1347;15387;4;1428;474;25;9;727;8484;4;792;528;23
03.03.19;14:50:00;1;211;4583;0;2;1257;11665;4;1344;406;26;3;805;7603;4;873;513;26;4;1090;11036;5;1135;240;27;5;2335;25996;4;1236;1019;419;685;32;6;1785;19925;4;906;890;592;572;30;7;1416;15434;4;1496;478;25;8;1409;15276;4;1487;473;25;9;755;8424;4;822;525;24
03.03.19;14:45:00;1;211;4565;0;2;1299;11561;4;1383;399;26;3;826;7536;4;899;516;26;4;1123;10945;5;1170;235;27;5;2412;25802;4;1269;1053;423;684;32;6;1853;19776;4;971;961;592;569;30;7;1470;15316;4;1549;474;25;8;1460;15158;4;1539;474;25;9;785;8360;4;851;525;24
03.03.19;14:40:00;1;221;4548;0;2;1312;11453;4;1399;403;27;3;838;7467;4;908;517;26;4;1145;10852;5;1193;235;27;5;2494;25601;4;1317;1091;420;672;32;6;1911;19621;4;985;986;591;574;30;7;1486;15194;4;1570;474;25;8;1475;15036;4;1559;475;25;9;797;8295;4;865;524;24
03.03.19;14:35:00;1;271;4530;0;2;1455;11343;4;1546;400;27;3;925;7397;4;999;516;27;4;1277;10756;5;1330;240;27;5;2757;25392;4;1466;1222;422;677;32;6;2120;19461;4;1071;1053;593;576;30;7;1646;15070;4;1743;476;26;8;1633;14913;4;1719;475;25;9;881;8229;4;949;523;24
03.03.19;14:30:00;1;272;4507;0;2;1634;11222;4;1731;403;27;3;1045;7320;4;1123;521;27;4;1441;10650;5;1501;240;27;5;3085;25159;4;1654;1351;420;683;32;6;2354;19282;4;1196;1172;590;577;30;7;1899;14933;4;2004;475;26;8;1885;14779;4;1985;479;26;9;1029;8156;4;1099;524;25